[[{"header":{"parameterUnit":"m.s-1","parameterCategory":1,"la1":30.2992,"la2":30.254,"lo1":-89.0895,"lo2":-89.0443,"dy":0.0025,"dx":0.0025,"nx":19,"ny":19,"refTime":"2026-04-28T09:00:00:Z","depth":0,"parameterNumber":2,"parameterNumberName":"U-component_of_WINDS"},"data":[0,0,0,1.9378,1.938,1.945,1.945,1.9545,1.9545,0,0,0,0,0,0,0,0,0,0,0,1.9363,1.9364,1.9378,1.938,1.945,1.945,1.9544,1.9545,0,0,0,0,0,0,0,0,0,0,0,1.9363,1.9364,1.9365,1.9381,1.9449,1.945,1.9544,1.9489,0,0,0,0,0,0,0,0,0,0,1.9421,1.9412,1.9363,1.9365,1.9381,1.9449,1.945,1.9487,1.9493,1.9516,0,1.954,0,1.9544,1.9552,1.9553,0,0,0,1.9376,1.9407,1.9421,1.9365,1.9382,1.9449,1.9417,1.949,1.9497,1.9524,1.9541,1.9544,1.9546,1.9553,1.9553,1.9706,1.9706,0,0,1.9372,1.9378,1.9416,1.9426,1.9417,1.9415,1.9419,1.9494,1.9512,1.9541,1.9546,1.9547,1.9554,1.9554,1.9705,1.9706,0,0,0,1.9364,1.9376,1.9388,1.9422,1.9434,1.9417,1.9422,1.9509,1.9512,1.9547,1.9549,1.9554,1.9556,1.9704,1.9705,1.9755,0,0,0,1.9361,1.9371,1.9386,1.9391,1.9433,1.9473,1.9435,1.9507,1.9515,1.9548,1.9554,1.9557,1.9703,1.9704,1.9752,1.9777,0,0,0,1.9357,1.937,1.9382,1.9391,1.9421,1.9471,1.9479,1.9509,1.9516,1.9553,1.9557,1.9702,1.9704,1.9749,1.9772,1.9818,0,0,0,1.9353,1.9426,1.9383,1.9465,1.9421,1.9503,1.9478,1.9539,1.9577,1.9555,1.9703,1.9705,1.9748,1.9769,1.9815,1.9857,1.9875,0,0,1.9448,1.9438,1.9485,1.9449,1.954,1.9492,1.959,1.9618,1.9616,1.9675,1.9679,1.9753,1.9772,1.9817,1.998,1.9994,0,0,0,1.9517,1.9551,1.9574,1.9611,1.9635,1.9657,1.967,1.968,1.973,1.9648,1.9782,1.9794,1.982,1.9839,1.9852,1.9873,1.9715,1.9715,1.9714,1.9659,1.9653,1.9731,1.9733,1.9768,1.9781,1.9808,1.9824,1.9807,1.9839,1.9856,1.9955,1.9979,1.9988,2.001,1.9879,1.9879,1.9879,1.9879,1.9797,1.9843,1.9819,1.9886,1.9878,1.9934,1.9948,1.9934,1.9984,1.9942,1.9965,1.9919,2.0005,2.0024,1.9883,1.9883,1.9882,1.9882,1.9881,1.9887,1.9908,1.9921,1.9972,2.0012,2.0012,2.006,2.0052,2.0044,2.0067,2.0082,2.0082,2.0078,2.0075,2.0076,2.0076,2.0076,2.0076,2.0077,1.9976,1.9988,2.0031,2.0063,2.0084,2.0112,2.0125,2.0146,2.0166,2.0156,2.0156,2.0134,2.0015,1.9984,2.0082,2.0081,2.008,2.008,2.0079,2.0114,2.0082,2.0148,2.017,2.0205,2.0245,2.0234,2.0277,2.0293,2.0316,2.0291,2.0204,2.0192,2.0182,2.0156,2.0293,2.0293,2.0293,2.0293,2.019,2.0184,2.0248,2.0284,2.0317,2.0314,2.0387,2.0397,2.0403,2.0412,2.0391,2.0357,2.0347,2.0341,2.0327,2.0303,2.0474,2.0474,2.0474,2.0273,2.027,2.0334,2.034,2.0368,2.0391,2.0458,2.0498,2.0498,2.0481,2.0418,2.041,2.0355,2.0338,2.0318,2.0297,2.0252,0,0]},{"header":{"parameterUnit":"m.s-1","parameterCategory":1,"la1":30.2992,"la2":30.254,"lo1":-89.0895,"lo2":-89.0443,"dy":0.0025,"dx":0.0025,"nx":19,"ny":19,"refTime":"2026-04-28T09:00:00:Z","depth":0,"parameterNumber":3,"parameterNumberName":"V-component_of_WINDS"},"data":[0,0,0,4.1201,4.1205,4.1423,4.1424,4.1698,4.1701,0,0,0,0,0,0,0,0,0,0,0,4.1137,4.1139,4.12,4.1206,4.1423,4.1424,4.1698,4.1701,0,0,0,0,0,0,0,0,0,0,0,4.1136,4.1138,4.114,4.1207,4.1423,4.1424,4.1697,4.1534,0,0,0,0,0,0,0,0,0,0,4.1323,4.1265,4.1138,4.1141,4.1208,4.1422,4.1424,4.1526,4.1544,4.1599,0,4.165,0,4.168,4.1719,4.172,0,0,0,4.1205,4.125,4.1309,4.1141,4.121,4.1422,4.1325,4.1536,4.1557,4.1623,4.1654,4.1664,4.1685,4.1721,4.1722,4.2047,4.2048,0,0,4.1193,4.1176,4.1295,4.1322,4.129,4.1318,4.1331,4.1549,4.1581,4.1655,4.1671,4.1689,4.1723,4.1725,4.2045,4.2047,0,0,0,4.1159,4.1167,4.122,4.1311,4.135,4.1324,4.134,4.1571,4.159,4.1674,4.1692,4.1724,4.1728,4.2044,4.2046,4.2106,0,0,0,4.1152,4.1147,4.1215,4.1206,4.1346,4.1464,4.1357,4.1575,4.16,4.1691,4.1725,4.1731,4.2042,4.2045,4.21,4.2136,0,0,0,4.1122,4.1144,4.1176,4.1205,4.1298,4.1461,4.1492,4.1581,4.1611,4.1721,4.1731,4.2041,4.2044,4.2096,4.2129,4.2216,0,0,0,4.1085,4.1225,4.1176,4.1339,4.1296,4.1496,4.1491,4.1641,4.1741,4.1726,4.2042,4.2046,4.2094,4.2124,4.2211,4.2287,4.2317,0,0,4.1252,4.1245,4.1342,4.1305,4.1509,4.1465,4.1678,4.1786,4.1812,4.1966,4.1974,4.2102,4.2128,4.2215,4.2492,4.2515,0,0,0,4.1389,4.1458,4.1516,4.1612,4.1699,4.1776,4.1854,4.1894,4.2026,4.1888,4.2158,4.2174,4.2226,4.2263,4.2283,4.2328,4.2062,4.2062,4.2061,4.1599,4.1625,4.1787,4.184,4.1933,4.2011,4.2088,4.2155,4.2154,4.2217,4.2263,4.2428,4.2471,4.2486,4.2533,4.2306,4.2306,4.2306,4.2306,4.1844,4.1947,4.1942,4.2098,4.2125,4.2255,4.2336,4.233,4.2455,4.2396,4.2442,4.2375,4.2511,4.2553,4.2311,4.231,4.231,4.2309,4.2309,4.1984,4.2038,4.2085,4.2226,4.2331,4.2379,4.2499,4.2518,4.2537,4.2583,4.2633,4.2633,4.2633,4.2606,4.2607,4.2607,4.2608,4.2608,4.2608,4.2111,4.2162,4.2262,4.2366,4.2429,4.2515,4.2595,4.2658,4.2732,4.2737,4.2737,4.2729,4.252,4.2467,4.2617,4.2616,4.2615,4.2614,4.2613,4.2349,4.2299,4.2452,4.2517,4.2639,4.2742,4.2765,4.2891,4.2946,4.3004,4.2986,4.2828,4.2822,4.2806,4.2762,4.298,4.298,4.298,4.298,4.2467,4.2466,4.2628,4.2728,4.2829,4.2866,4.3037,4.31,4.3157,4.3192,4.3163,4.3106,4.3089,4.3093,4.3071,4.303,4.3311,4.3312,4.3312,4.2615,4.2625,4.2768,4.2824,4.2921,4.3004,4.3165,4.3279,4.3333,4.3326,4.3219,4.3205,4.3114,4.3083,4.3073,4.3039,4.2964,0,0]}]]